When you browse on this site, cookies collect data to enhance your experience and personalize the content and advertising you see.
Visit our Privacy Policy to learn more. By continuing to use the site, you agree to this use of cookies and data.
  • In Germany
  • List of Countries
  • For 7 days
  • Water Temperature
  • Satellite Maps
  • Weather Map
  • Weather Widgets
  • user-avatar
    Login

    Hourly Weather Adelaide

    Today, 18 December, Tuesday

    Time Temperature Precipitation Wind Pressure Humidity
    00:00 +21°C° 0 mm 4 mps 754 mmHg 71%
    01:00 +21°C° 0 mm 4 mps 754 mmHg 72%
    02:00 +21°C° 0 mm 4 mps 754 mmHg 74%
    03:00 +20°C° 0 mm 3 mps 755 mmHg 75%
    04:00 +20°C° 0 mm 3 mps 755 mmHg 74%
    05:00 +21°C° 0 mm 4 mps 755 mmHg 73%
    06:00 +21°C° 0 mm 4 mps 756 mmHg 72%
    07:00 +23°C° 0 mm 4 mps 756 mmHg 65%
    08:00 +26°C° 0 mm 4 mps 756 mmHg 57%
    09:00 +28°C° 0 mm 2 mps 756 mmHg 51%
    10:00 +29°C° 0 mm 2 mps 756 mmHg 48%
    11:00 +30°C° 0 mm 3 mps 755 mmHg 44%
    12:00 +31°C° 0 mm 3 mps 755 mmHg 40%
    13:00 +32°C° 0 mm 4 mps 755 mmHg 39%
    14:00 +33°C° 0 mm 4 mps 754 mmHg 38%
    15:00 +32°C° 0 mm 4 mps 755 mmHg 43%
    16:00 +30°C° 0 mm 5 mps 755 mmHg 46%
    17:00 +29°C° 0 mm 5 mps 755 mmHg 49%
    18:00 +27°C° 0 mm 5 mps 755 mmHg 52%
    19:00 +27°C° 0 mm 6 mps 755 mmHg 54%
    20:00 +26°C° 0 mm 6 mps 754 mmHg 55%
    21:00 +26°C° 0 mm 4 mps 754 mmHg 54%
    22:00 +26°C° 0.2 mm 4 mps 754 mmHg 54%
    23:00 +25°C° 0.2 mm 4 mps 753 mmHg 53%

    Tomorrow, 19 December, Wednesday

    Time Temperature Precipitation Wind Pressure Humidity
    00:00 +25°C° 0.2 mm 5 mps 753 mmHg 53%
    01:00 +25°C° 0.3 mm 5 mps 752 mmHg 51%
    02:00 +25°C° 0.3 mm 5 mps 752 mmHg 50%
    03:00 +24°C° 0.3 mm 6 mps 751 mmHg 48%
    04:00 +25°C° 0.4 mm 5 mps 752 mmHg 49%
    05:00 +25°C° 0.4 mm 5 mps 752 mmHg 49%
    06:00 +25°C° 0.4 mm 4 mps 752 mmHg 49%
    07:00 +26°C° 0.2 mm 5 mps 752 mmHg 46%
    08:00 +27°C° 0.2 mm 5 mps 752 mmHg 44%
    09:00 +28°C° 0.2 mm 6 mps 752 mmHg 41%
    10:00 +32°C° 0 mm 6 mps 751 mmHg 36%
    11:00 +34°C° 0 mm 5 mps 751 mmHg 31%
    12:00 +36°C° 0 mm 5 mps 750 mmHg 26%
    13:00 +37°C° 0 mm 5 mps 750 mmHg 24%
    14:00 +40°C° 0 mm 5 mps 749 mmHg 22%
    15:00 +41°C° 0 mm 5 mps 748 mmHg 20%
    16:00 +38°C° 0 mm 6 mps 748 mmHg 28%
    17:00 +34°C° 0 mm 7 mps 749 mmHg 36%
    18:00 +31°C° 0 mm 8 mps 749 mmHg 44%
    19:00 +28°C° 0 mm 7 mps 750 mmHg 51%
    20:00 +26°C° 0 mm 7 mps 751 mmHg 58%
    21:00 +23°C° 0 mm 7 mps 751 mmHg 64%
    22:00 +23°C° 0 mm 7 mps 752 mmHg 65%
    23:00 +22°C° 0 mm 6 mps 752 mmHg 66%

    Day after tomorrow, 20 December, Thursday

    Time Temperature Precipitation Wind Pressure Humidity
    00:00 +22°C° 0 mm 6 mps 752 mmHg 67%
    01:00 +22°C° 0 mm 6 mps 752 mmHg 69%
    02:00 +21°C° 0 mm 6 mps 752 mmHg 70%
    03:00 +21°C° 0 mm 6 mps 752 mmHg 72%
    04:00 +20°C° 0 mm 6 mps 753 mmHg 73%
    05:00 +20°C° 0 mm 6 mps 753 mmHg 75%
    06:00 +20°C° 0 mm 6 mps 754 mmHg 76%
    07:00 +21°C° 0 mm 7 mps 754 mmHg 71%
    08:00 +22°C° 0 mm 7 mps 754 mmHg 66%
    09:00 +23°C° 0 mm 7 mps 755 mmHg 61%
    10:00 +24°C° 0 mm 7 mps 755 mmHg 57%
    11:00 +24°C° 0 mm 7 mps 755 mmHg 53%
    12:00 +26°C° 0 mm 8 mps 755 mmHg 49%
    13:00 +26°C° 0 mm 8 mps 754 mmHg 49%
    14:00 +24°C° 0 mm 8 mps 754 mmHg 49%
    15:00 +24°C° 0 mm 8 mps 754 mmHg 49%
    16:00 +23°C° 0 mm 7 mps 755 mmHg 53%
    17:00 +21°C° 0 mm 7 mps 755 mmHg 57%
    18:00 +20°C° 0 mm 7 mps 755 mmHg 61%
    19:00 +19°C° 0 mm 6 mps 756 mmHg 66%
    20:00 +17°C° 0 mm 6 mps 756 mmHg 70%
    21:00 +16°C° 0 mm 6 mps 757 mmHg 75%
    22:00 +16°C° 0 mm 6 mps 757 mmHg 76%
    23:00 +15°C° 0 mm 5 mps 757 mmHg 77%

    21 December, Friday

    Time Temperature Precipitation Wind Pressure Humidity
    00:00 +15°C° 0 mm 5 mps 757 mmHg 78%
    01:00 +15°C° 0 mm 5 mps 756 mmHg 77%
    02:00 +15°C° 0 mm 5 mps 756 mmHg 77%
    03:00 +15°C° 0 mm 6 mps 756 mmHg 77%
    04:00 +15°C° 0 mm 6 mps 757 mmHg 75%
    05:00 +15°C° 0 mm 6 mps 757 mmHg 73%
    06:00 +15°C° 0 mm 6 mps 757 mmHg 71%
    07:00 +16°C° 0 mm 5 mps 757 mmHg 68%
    08:00 +16°C° 0 mm 5 mps 757 mmHg 64%
    09:00 +17°C° 0 mm 5 mps 758 mmHg 61%
    10:00 +19°C° 0 mm 6 mps 758 mmHg 57%
    11:00 +20°C° 0 mm 6 mps 758 mmHg 54%
    12:00 +20°C° 0 mm 6 mps 758 mmHg 51%
    13:00 +20°C° 0 mm 6 mps 758 mmHg 50%
    14:00 +20°C° 0 mm 6 mps 758 mmHg 50%
    15:00 +20°C° 0 mm 7 mps 758 mmHg 50%
    16:00 +20°C° 0 mm 7 mps 758 mmHg 52%
    17:00 +18°C° 0 mm 7 mps 758 mmHg 54%
    18:00 +17°C° 0 mm 7 mps 759 mmHg 56%
    19:00 +17°C° 0 mm 6 mps 759 mmHg 60%
    20:00 +16°C° 0 mm 6 mps 760 mmHg 64%
    21:00 +15°C° 0 mm 5 mps 760 mmHg 69%
    22:00 +15°C° 0 mm 5 mps 760 mmHg 71%
    23:00 +15°C° 0 mm 4 mps 760 mmHg 73%

    22 December, Saturday

    Time Temperature Precipitation Wind Pressure Humidity
    00:00 +14°C° 0 mm 4 mps 760 mmHg 75%
    01:00 +14°C° 0 mm 4 mps 760 mmHg 76%
    02:00 +14°C° 0 mm 4 mps 760 mmHg 78%
    03:00 +14°C° 0 mm 4 mps 760 mmHg 80%
    04:00 +14°C° 0 mm 4 mps 760 mmHg 77%
    05:00 +15°C° 0 mm 4 mps 761 mmHg 75%
    06:00 +15°C° 0 mm 4 mps 761 mmHg 73%
    07:00 +17°C° 0 mm 4 mps 761 mmHg 65%
    08:00 +18°C° 0 mm 4 mps 762 mmHg 57%
    09:00 +20°C° 0 mm 4 mps 762 mmHg 50%
    10:00 +21°C° 0 mm 4 mps 762 mmHg 46%
    11:00 +22°C° 0 mm 4 mps 761 mmHg 43%
    12:00 +23°C° 0 mm 5 mps 761 mmHg 40%
    13:00 +23°C° 0 mm 5 mps 761 mmHg 41%
    14:00 +23°C° 0 mm 5 mps 761 mmHg 42%
    15:00 +23°C° 0 mm 6 mps 760 mmHg 44%
    16:00 +22°C° 0 mm 6 mps 761 mmHg 48%
    17:00 +21°C° 0 mm 5 mps 761 mmHg 52%
    18:00 +20°C° 0 mm 5 mps 761 mmHg 56%
    19:00 +19°C° 0 mm 5 mps 762 mmHg 61%
    20:00 +17°C° 0 mm 5 mps 762 mmHg 66%
    21:00 +17°C° 0 mm 4 mps 762 mmHg 71%
    22:00 +15°C° 0 mm 4 mps 762 mmHg 73%
    23:00 +16°C° 0 mm 3 mps 762 mmHg 75%

    23 December, Sunday

    Time Temperature Precipitation Wind Pressure Humidity
    00:00 +14°C° 0 mm 3 mps 762 mmHg 77%
    01:00 +15°C° 0 mm 2 mps 762 mmHg 79%
    02:00 +15°C° 0 mm 2 mps 762 mmHg 80%
    03:00 +14°C° 0 mm 2 mps 761 mmHg 82%
    04:00 +15°C° 0 mm 2 mps 762 mmHg 78%
    05:00 +15°C° 0 mm 2 mps 762 mmHg 75%
    06:00 +16°C° 0 mm 1 mps 762 mmHg 72%
    07:00 +19°C° 0 mm 1 mps 762 mmHg 60%
    08:00 +21°C° 0 mm 1 mps 762 mmHg 48%
    09:00 +24°C° 0 mm 1 mps 762 mmHg 37%
    10:00 +25°C° 0 mm 1 mps 762 mmHg 34%
    11:00 +27°C° 0 mm 1 mps 761 mmHg 30%
    12:00 +28°C° 0 mm 1 mps 761 mmHg 27%
    13:00 +28°C° 0 mm 2 mps 760 mmHg 27%
    14:00 +29°C° 0 mm 3 mps 760 mmHg 27%
    15:00 +29°C° 0 mm 3 mps 759 mmHg 26%
    16:00 +28°C° 0 mm 4 mps 759 mmHg 29%
    17:00 +27°C° 0 mm 4 mps 759 mmHg 32%
    18:00 +26°C° 0 mm 4 mps 759 mmHg 35%
    19:00 +24°C° 0 mm 3 mps 760 mmHg 40%
    20:00 +22°C° 0 mm 3 mps 760 mmHg 45%
    21:00 +21°C° 0 mm 2 mps 760 mmHg 50%
    22:00 +20°C° 0 mm 2 mps 759 mmHg 49%
    23:00 +20°C° 0 mm 2 mps 759 mmHg 48%
    Show more